Weather in Pokrovskoe

Russia / Rostov Oblast     47°24′08″N   38°54′33″E
В апреле 2022 года жителям России запретили посещать сайт meteo.paraplan.net по решению Генеральной прокуратуры. Аудитория сайта уменьшилась в 10 раз. Владельцы сайта не видят смысла в поддержке погодного сервера в таких условиях. Сайт будет закрыт в октябре.
temp.,
°C
wind,
m/s
gust,
m/s
humid.,
%
clouds,
%
prec.,
mm/h
press.,
hPa
HPBL,
m
25 september, sun
sun2500:00+10wsw5107442 0.1 1015459
03:00+10w512756 0.1 1016425
06:00+9wsw5127353 0.0 1016444
09:00+12w812624 0.0 10171023
12:00+16w912415 0.0 10171865
15:00+18w912346 0.0 10172452
18:00+16w5104214 0.0 1017331
21:00+14wsw41148100 0.0 1018273
26 september, mon
mon2600:00+12wsw485659 0.0 1019169
03:00+13wsw3453100 0.0 101887
06:00+13sw3775100 0.1 1018210
09:00+16wsw4868100 0.1 1018592
12:00+19wsw5754100 0.0 10181435
15:00+20sw674999 0.0 10171478
18:00+17sw366055 0.0 1017161
21:00+15ssw227176 0.0 101731
27 september, tue
tue2700:00+14sse3375100 0.0 101645
03:00+14se3568100 0.0 101490
06:00+13sse3771100 0.0 1013134
09:00+16se3556100 0.0 1013235
12:00+19sse3547100 0.0 1011508
15:00+22sse453799 0.0 10101003
18:00+19se2245100 0.0 100911
21:00+17ese3446100 0.0 100857
28 september, wed
wed2800:00+17se384799 0.0 1007144
03:00+16ese3654100 0.0 1005111
06:00+16se3566100 0.0 100484
09:00+19sse4857100 0.0 1004258
12:00+23ssw4638100 0.0 1003605
15:00+23ssw7124999 0.0 10031604
18:00+20sw69715 0.0 1004442
21:00+17ssw37853 0.0 1006152
29 september, thu
thu2900:00+17sw4108327 0.4 1006266
03:00+16sw34890 0.6 100767
06:00+15w33890 0.0 100864
09:00+18nw34740 0.0 1010433
12:00+22nw44490 0.0 10111148
15:00+23nw55386 0.0 10111541
18:00+20nnw3647100 0.0 1013129
21:00+18n3755100 0.0 1015177